Location: Roanoke
(37.2710°N, 79.9420°W)
Time: 07:47:52
(UTC-05:00)

Courier 1B Rocket - Pass Details

Date: 21 November 2019
Orbit: 920 x 1202 km, 28.2° (Epoch: 13 December)

Event Time Altitude Azimuth Distance (km) Brightness Sun altitude
Rises 20:15:41 0° 260° (W) 4,017 9.1 -37.5°
Reaches altitude 10° 20:20:08 10° 237° (WSW) 3,093 8.1 -38.4°
Maximum altitude 20:23:46 14° 208° (SSW) 2,816 7.6 -39.1°
Enters shadow 20:25:29 13° 194° (SSW) 2,889 7.5 -39.5°
Drops below altitude 10° 20:27:27 10° 180° (S) 3,121 - -39.9°
Sets 20:32:00 0° 157° (SSE) 4,081 - -40.8°
